Regional Weather Roundup
Issued by NWS

Home | Current Version | Previous Version | Text Only | Print | Product List | Glossary Off
Versions: 1 2 3 4 5 6 7 8 9 10 11 12 13 14 15 16 17 18 19 20 21 22 23 24 25 26 27 28 29 30 31 32 33 34 35 36 37 38 39 40 41 42 43 44 45 46 47 48 49 50

000
ASUS43 KBIS 220010
RWRND

NORTH DAKOTA REGIONAL WEATHER ROUNDUP
NATIONAL WEATHER SERVICE BISMARCK ND
700 PM CDT SAT OCT 21 2017

NOTE: "FAIR" INDICATES FEW OR NO CLOUDS BELOW 12,000 FEET WITH NO
SIGNIFICANT WEATHER AND/OR OBSTRUCTIONS TO VISIBILITY.


NDZ001>003-009>011-017-220100-
NORTHWEST NORTH DAKOTA

CITY           SKY/WX    TMP DP  RH WIND       PRES   REMARKS
WILLISTON      CLEAR     49  31  49 NW14      29.75R
6HR MIN TEMP:  48; 6HR MAX TEMP:  53;

MINOT          CLOUDY    49  37  63 W23G31    29.65R
MINOT AFB      CLOUDY    47  36  65 NW21G32   29.63R
$$

NDZ018>021-031>035-040>046-220100-
SOUTHWEST NORTH DAKOTA

CITY           SKY/WX    TMP DP  RH WIND       PRES   REMARKS
BISMARCK       CLOUDY    51  36  56 NW17      29.75R
6HR MIN TEMP:  50; 6HR MAX TEMP:  52; 6HR PCP: TRACE;

DICKINSON      PTCLDY    49  27  42 NW18      29.76R
GARRISON         N/A     48  36  63 NW25G36   29.71R
6HR MIN TEMP:  47; 6HR MAX TEMP:  52;

HETTINGER ARPT MOCLDY    50  23  34 W21G29    29.83R
$$

NDZ004>008-012>016-024-026-027-054-220100-
NORTHEAST NORTH DAKOTA

CITY           SKY/WX    TMP DP  RH WIND       PRES   REMARKS
GRAND FORKS    MOCLDY    55  43  63 SW16      29.58R
GRND FRKS AFB  CLOUDY    53  42  66 W13       29.59R
DEVILS LAKE    CLOUDY    49  39  68 W17G26    29.61R
$$

NDZ022-023-025-028>030-036>039-047>053-220100-
SOUTHEAST NORTH DAKOTA

CITY           SKY/WX    TMP DP  RH WIND       PRES   REMARKS
FARGO          CLOUDY    54  44  69 W16G23    29.64R
6HR MIN TEMP:  54; 6HR MAX TEMP:  62; 6HR PCP: TRACE;

JAMESTOWN      CLOUDY    50  40  68 W16       29.68R
$$




USA.gov is the U.S. government's official web portal to all federal, state and local government web resources and services.